#timestamp,LO_Frequency,Hit,StdDev 
1512230415.6,286046984.4,P
1512230435.4,286046982.5,Y
1512230455.2,286046992.8,P
1512230475.1,286046988.5,P
1512230476.0,286046988.5,P
1512230495.8,286046985.8,Y
1512230515.6,286046999.2,P
1512230535.5,286046995.3,N
1512230555.3,286046995.9,N
1512230575.1,286046995.7,N
1512230595.9,286046994.6,N
1512230615.7,286046990.3,Y
1512230635.5,286046994.8,P
1512230655.4,286046993.8,P
1512230675.2,286046993.3,P
1512230695.0,286046995.7,Y
1512230695.9,286046995.7,P
1512230715.8,286046998.2,N
1512230735.6,286046999.6,N
1512230755.4,286046996.9,N
1512230775.3,286046997.3,N
1512230795.1,286046996.3,N
1512230796.0,286046996.3,N
1512230815.8,286046997.1,N
1512230835.7,286046996.1,N
1512230855.5,286046993.5,Y
1512230875.3,286046997.7,P
1512230895.2,286046996.6,P
1512230915.9,286047000.9,N
1512230935.7,286047002.0,N
1512230955.5,286047004.1,N
1512230975.4,286047001.7,N
1512230995.2,286047007.5,N
1512231015.0,286047010.1,N
1512231015.9,286047010.1,N
1512231035.8,286047015.0,Y
1512231055.6,286047012.8,P
1512231075.4,286047012.4,N
1512231095.3,286047015.0,P
1512231115.1,286047016.0,Y
1512231135.8,286047003.6,P
1512231155.7,286047003.3,N
1512231175.5,286047009.2,N
1512231195.3,286047007.9,N
1512231215.2,286047014.0,Y
1512231235.0,286047008.4,P
1512231235.9,286047008.4,P
1512231255.7,286047008.6,P
1512231275.6,286047010.2,Y
1512231295.4,286047004.9,P
1512231315.2,286047007.0,P
1512231335.1,286047006.0,P
1512231336.0,286047006.0,Y
1512231355.8,286046993.3,P
1512231375.6,286046995.4,N
1512231395.5,286046999.2,N
1512231415.3,286046998.1,N
1512231435.1,286046998.9,N
1512231455.9,286047002.8,N
1512231475.7,286047004.7,N
1512231495.5,286047007.0,N
1512231515.4,286047006.9,N
1512231535.2,286047009.1,N
1512231555.0,286047012.2,N
1512231555.9,286047012.2,N
1512231575.8,286047013.8,N
1512231595.6,286047014.4,N
1512231615.4,286047018.0,N
1512231635.2,286047014.1,N
1512231655.1,286047015.0,N
1512231656.0,286047015.0,N
1512231675.8,286047018.4,N
1512231695.6,286047021.1,N
1512231715.5,286047020.5,N
1512231735.3,286047024.5,Y
1512231755.2,286047015.9,P
1512231775.9,286047015.3,P
1512231795.7,286047015.3,P
1512231815.6,286047014.2,Y
1512231835.4,286047001.6,P
1512231855.2,286047000.1,N
1512231875.0,286047002.7,N
1512231875.9,286047002.7,N
1512231895.8,286047001.3,N
1512231915.6,286047001.7,N
1512231935.4,286047001.9,N
1512231955.3,286047004.9,N
1512231975.1,286047003.7,N
1512231995.8,286047003.1,N
1512232015.7,286047001.8,N
1512232035.5,286047002.6,N
1512232055.3,286047000.2,N
1512232075.2,286047001.5,N
1512232095.9,286047004.6,N
1512232115.7,286047003.1,N
1512232135.5,286047003.7,N
1512232155.4,286047001.7,N
1512232175.2,286047002.0,N
1512232195.0,286047002.3,N
1512232195.9,286047002.3,N
1512232215.8,286047004.2,N
1512232235.6,286047001.9,N
1512232255.4,286047003.9,N
1512232275.3,286047005.9,N
1512232295.1,286047005.4,N
1512232296.0,286047005.4,N
1512232315.8,286047004.9,N
1512232335.7,286047006.9,N
1512232355.5,286047006.0,N
1512232375.3,286047001.5,N
1512232395.2,286047001.4,N
1512232415.9,286046999.9,N
1512232435.7,286047000.4,N
1512232455.5,286046998.8,N
1512232475.4,286046998.9,N
1512232495.2,286046998.0,N
1512232515.0,286046997.3,N
1512232515.9,286046997.3,N
1512232535.8,286046999.2,N
1512232555.6,286047000.5,N
1512232575.4,286047001.7,N
1512232595.3,286047004.8,N
1512232615.1,286047004.3,N
1512232635.8,286047006.0,N
1512232655.7,286047007.1,N
1512232675.5,286047005.3,N
1512232695.3,286047004.2,N
1512232715.2,286047002.2,N
1512232735.9,286047003.1,N
1512232755.7,286047001.3,N
1512232775.5,286047004.4,N
1512232795.4,286047003.6,N
1512232815.2,286047002.6,N
1512232835.0,286047000.1,N
1512232835.9,286047000.1,N
1512232855.8,286047001.1,N
1512232875.6,286047002.2,N
1512232895.4,286046998.1,N
1512232915.3,286046996.8,N
1512232935.1,286046997.8,N
1512232955.8,286046999.6,N
1512232975.7,286046998.2,N
1512232995.5,286047000.0,N
1512233015.3,286046998.5,N
1512233035.2,286046997.1,N
1512233055.9,286046998.4,N
1512233075.7,286047000.4,N
1512233095.6,286047000.8,N
1512233115.4,286047001.2,N
1512233135.2,286046996.5,N
1512233155.0,286046996.6,N
1512233156.0,286046996.6,N
1512233175.8,286046996.9,N
1512233195.6,286046997.5,N
1512233215.4,286046997.6,N
1512233235.3,286046996.5,N
1512233255.1,286046999.0,N
1512233275.8,286046996.6,N
1512233295.7,286046998.5,N
1512233315.5,286046995.7,N
1512233335.3,286046995.2,N
1512233355.2,286046995.0,N
1512233375.9,286046995.8,N
1512233395.7,286046995.4,N
1512233415.6,286046995.1,N
1512233435.4,286046997.5,N
1512233455.2,286046993.7,Y
1512233475.1,286046995.2,P
1512233476.0,286046995.2,P
1512233495.8,286046998.0,N
1512233515.6,286046996.2,N
1512233535.5,286046989.0,Y
1512233555.3,286046993.7,P
1512233575.1,286046995.9,N
1512233595.9,286046995.5,P
1512233615.7,286046996.4,Y
1512233635.5,286046997.3,P
1512233655.4,286046995.6,P
1512233675.2,286046995.7,P
1512233695.0,286046995.7,Y
1512233695.9,286046995.7,P
1512233715.8,286047002.2,P
1512233735.6,286047002.0,N
1512233755.4,286047002.8,N
1512233775.3,286047001.9,N
1512233795.1,286047000.3,N
1512233796.0,286047000.3,N
1512233815.8,286047002.1,N
1512233835.6,286047001.6,N
1512233855.5,286047003.5,N
1512233875.3,286047003.8,N
1512233895.1,286047000.2,N
1512233915.9,286047004.1,N
1512233935.7,286047007.0,N
1512233955.5,286047008.0,N
1512233975.4,286047008.6,N
1512233995.2,286047008.5,N
